This is the latest recevied weather packets stored in our database for station/object N4BBA. If no packets are shown the sender has not sent any weather packets the latest 10 day(s).
| Time | Temp. | Humidity | Pressure | Rain* | Wind** | Luminosity | Snow |
|---|---|---|---|---|---|---|---|
| 1777634945 | 11.11° C | 71% | 1014.9 hPa | 0 mm | - | 25 W/m² | - |
| 1777634642 | 11.11° C | 72% | 1014.9 hPa | 0 mm | - | 28 W/m² | - |
| 1777634340 | 11.11° C | 72% | 1014.7 hPa | 0 mm | - | 25 W/m² | - |
| 1777634036 | 11.11° C | 71% | 1014.9 hPa | 0 mm | - | 22 W/m² | - |
| 1777633732 | 11.67° C | 72% | 1014.9 hPa | 0 mm | - | 15 W/m² | - |
| 1777633431 | 11.11° C | 72% | 1014.7 hPa | 0 mm | - | 17 W/m² | - |
| 1777633128 | 11.11° C | 74% | 1014.6 hPa | 0 mm | - | 19 W/m² | - |
| 1777632824 | 11.11° C | 74% | 1014.7 hPa | 0 mm | - | 17 W/m² | - |
| 1777632520 | 11.11° C | 74% | 1014.8 hPa | 0 mm | - | 17 W/m² | - |
| 1777632218 | 11.11° C | 75% | 1014.7 hPa | 0 mm | - | 10 W/m² | - |
| 1777631915 | 11.11° C | 75% | 1014.7 hPa | 0 mm | - | 4 W/m² | - |
| 1777631614 | 11.11° C | 75% | 1014.7 hPa | 0 mm | - | 2 W/m² | - |
| 1777631310 | 11.11° C | 76% | 1014.7 hPa | 0 mm | - | 2 W/m² | - |
| 1777631007 | 11.11° C | 76% | 1014.4 hPa | 0 mm | - | 1 W/m² | - |
| 1777630703 | 11.11° C | 75% | 1014.2 hPa | 0 mm | - | 1 W/m² | - |
| 1777630400 | 11.11° C | 75% | 1014.4 hPa | 0 mm | - | 0 W/m² | - |
| 1777630098 | 11.11° C | 74% | 1014.6 hPa | 0 mm | - | 0 W/m² | - |
| 1777629795 | 11.11° C | 74% | 1014.2 hPa | 0 mm | - | 0 W/m² | - |
| 1777629492 | 11.11° C | 74% | 1014 hPa | 0 mm | - | 0 W/m² | - |
| 1777629188 | 11.11° C | 75% | 1014 hPa | 0 mm | - | 0 W/m² | - |
| 1777628884 | 11.11° C | 74% | 1014.1 hPa | 0 mm | - | 0 W/m² | - |
| 1777628581 | 11.11° C | 74% | 1014.1 hPa | 0 mm | - | 0 W/m² | - |
| 1777628277 | 11.11° C | 75% | 1014.2 hPa | 0 mm | - | 0 W/m² | - |
| 1777627974 | 11.11° C | 75% | 1014.2 hPa | 0 mm | - | 0 W/m² | - |
| 1777627673 | 11.11° C | 75% | 1014.1 hPa | 0 mm | - | 0 W/m² | - |
* Rain latest hour (hover to see other rain measurements)
** Current wind speed in m/s (hover to see current wind gust speed)